Regional Weather Roundup
Issued by NWS

Home | Current Version | Previous Version | Graphics & Text | Print | Product List | Glossary On
Versions: 1 2 3 4 5 6 7 8 9 10 11 12 13 14 15 16 17 18 19 20 21 22 23 24 25 26 27 28
000
ASUS45 KCYS 271210
RWRWY

WYOMING REGIONAL WEATHER ROUNDUP
NATIONAL WEATHER SERVICE CHEYENNE WY
600 AM MDT WED JUL 27 2016

NOTE:  "FAIR" INDICATES FEW OR NO CLOUDS BELOW 12,000 FEET
WITH NO SIGNIFICANT WEATHER AND/OR OBSTRUCTIONS TO VISIBILITY.

WYZ001-271300-
YELLOWSTONE NATIONAL PARK

CITY           SKY/WX    TMP DP  RH WIND       PRES   REMARKS
LK YELLOWSTONE   N/A     40  35  83 CALM      30.39S
6HR MIN TEMP:  40; 6HR MAX TEMP:  54;

W YELLOWSTONE  NOT AVBL

$$
WYZ002>013-054>058-071-098>099-271300-
NORTHERN WYOMING

CITY           SKY/WX    TMP DP  RH WIND       PRES   REMARKS
JACKSON        FAIR      48  36  61 CALM      30.29R
CODY           FAIR      59  43  55 S5        30.21R
GREYBULL       FAIR      65  47  52 NW9       30.10R
6HR MIN TEMP:  62; 6HR MAX TEMP:  74;

WORLAND        FAIR      60  49  66 S10       30.13R
6HR MIN TEMP:  58; 6HR MAX TEMP:  73; 6HR PCP: TRACE;

SHERIDAN       FAIR      64  52  64 W12       30.13R
6HR MIN TEMP:  62; 6HR MAX TEMP:  71;

BUFFALO        FAIR      63  50  62 N5        30.20R
6HR MIN TEMP:  61; 6HR MAX TEMP:  72; 6HR PCP:  0.02;

GILLETTE       FAIR      65  52  62 VRB3      30.12R
6HR MIN TEMP:  63; 6HR MAX TEMP:  69; 6HR PCP:  0.02;

HULETT         FAIR      63  59  88 CALM      30.15S
NEWCASTLE      RAIN      64  52  63 CALM      30.20F

$$
WYZ014>020-022>026-101>103-271300-
CENTRAL WYOMING

CITY           SKY/WX    TMP DP  RH WIND       PRES   REMARKS
BIG PINEY      FAIR      46  27  47 CALM      30.32R
6HR MIN TEMP:  43; 6HR MAX TEMP:  62;

PINEDALE       FAIR      41  34  75 NW8       30.32S
DUBOIS         CLOUDY    50  32  50 NW9       30.33S HAZE
LANDER         FAIR      63  42  46 W10       30.20R
6HR MIN TEMP:  60; 6HR MAX TEMP:  75;

RIVERTON       FAIR      63  41  44 E5        30.21R
6HR MIN TEMP:  62; 6HR MAX TEMP:  76;

CASPER         FAIR      59  52  77 NE10      30.19R
6HR MIN TEMP:  58; 6HR MAX TEMP:  69; 6HR PCP:  0.01;

DOUGLAS          N/A    N/A N/A N/A MISG      30.19S

$$
WYZ021-027>030-104>119-271300-
SOUTHERN WYOMING

CITY           SKY/WX    TMP DP  RH WIND       PRES   REMARKS
EVANSTON       FAIR      61  22  22 S7        30.31S
6HR MIN TEMP:  57; 6HR MAX TEMP:  71;

KEMMERER         N/A     46  32  57 N13       30.31S
FORT BRIDGER   FAIR      67  22  17 SW10      30.32S
ROCK SPRINGS   FAIR      57  31  37 SW3       30.27S
6HR MIN TEMP:  55; 6HR MAX TEMP:  70;

DIXON          FAIR      49  39  68 CALM      30.29S
RAWLINS        FAIR      52  36  54 CALM      30.27R
6HR MIN TEMP:  50; 6HR MAX TEMP:  75;

SARATOGA       FAIR      54  37  54 S13       30.29F
LARAMIE        FAIR      51  36  56 SE8       30.32R
6HR MIN TEMP:  51; 6HR MAX TEMP:  60;

CHEYENNE       FAIR      59  44  57 NW13G24   30.26R
6HR MIN TEMP:  56; 6HR MAX TEMP:  63;

TORRINGTON     FAIR      63  59  87 NW6       30.18R
6HR MIN TEMP:  59; 6HR MAX TEMP:  71; 6HR PCP:  0.01;

PINE BLUFFS    FAIR      55  50  82 N5        30.19R

$$




USA.gov is the U.S. government's official web portal to all federal, state and local government web resources and services.